Location: D�rnast
(49.6426°N, 11.9755°E)
Time: 19:49:31
(UTC+00:00)

MOS 1 Rocket - Pass Details

Date: 24 January 2021
Orbit: 614 x 830 km, 97.4° (Epoch: 02 March)

Event Time Altitude Azimuth Distance (km) Brightness Sun altitude
Rises 16:59:56 0° 19° (NNE) 2,915 6.2 -10.6°
Reaches altitude 10° 17:02:16 10° 28° (NNE) 1,993 5.3 -10.9°
Maximum altitude 17:06:17 37° 96° (E) 957 3.6 -11.6°
Drops below altitude 10° 17:10:16 10° 165° (SSE) 1,980 5.7 -12.2°
Sets 17:12:35 0° 174° (S) 2,895 6.6 -12.5°
